Location: Newark
(42.7133°N, 87.7910°W)
Time: 14:52:45
(UTC+00:00)

A-11 Canister half - Pass Details

Date: 28 September 2019
Orbit: 1527 x 1682 km, 47.3° (Epoch: 15 October)

Event Time Altitude Azimuth Distance (km) Brightness Sun altitude
Exits shadow 07:34:00 48° 93° (E) 1,934 9.5 -42.2°
Drops below altitude 10° 07:40:48 10° 67° (ENE) 3,764 11.6 -41.4°
Sets 07:43:57 0° 64° (ENE) 4,769 12.3 -41.0°
